Time,TemperatureF,DewpointF,PressureIn,WindDirection,WindDirectionDegrees,WindSpeedMPH,WindSpeedGustMPH,Humidity,HourlyPrecipIn,Conditions,Clouds,dailyrainin,SoftwareType,DateUTC
2013-02-21 00:03:00,21.0,12.0,29.90,WNW,300,12.0,20.0,67,-99.99,,,-99.99,,2013-02-21 05:03:00,
2013-02-21 00:12:00,19.0,12.0,29.90,WNW,290,12.0,21.0,73,-99.99,,,-99.99,,2013-02-21 05:12:00,
2013-02-21 00:22:00,19.0,12.0,29.90,West,280,8.0,22.0,73,-99.99,,,-99.99,,2013-02-21 05:22:00,
2013-02-21 00:34:00,19.0,12.0,29.90,WNW,290,12.0,21.0,73,-99.99,,,-99.99,,2013-02-21 05:34:00,
2013-02-21 00:44:00,19.0,14.0,29.90,WNW,290,9.0,20.0,79,-99.99,,,-99.99,,2013-02-21 05:44:00,
2013-02-21 00:53:00,19.0,14.0,29.89,WNW,300,10.0,18.0,79,-99.99,,,-99.99,,2013-02-21 05:53:00,
2013-02-21 01:01:00,19.0,14.0,29.89,WNW,300,10.0,18.0,79,-99.99,,,-99.99,,2013-02-21 06:01:00,
2013-02-21 01:11:00,19.0,14.0,29.90,WNW,300,13.0,20.0,79,-99.99,,,-99.99,,2013-02-21 06:11:00,
2013-02-21 01:21:00,19.0,14.0,29.90,WNW,300,9.0,-999.0,79,-99.99,,,-99.99,,2013-02-21 06:21:00,
2013-02-21 01:31:00,19.0,14.0,29.90,NW,310,8.0,20.0,79,-99.99,,,-99.99,,2013-02-21 06:31:00,
2013-02-21 01:41:00,19.0,14.0,29.89,WNW,300,7.0,-999.0,79,-99.99,,,-99.99,,2013-02-21 06:41:00,
2013-02-21 01:51:00,19.0,14.0,29.89,WNW,300,7.0,-999.0,79,-99.99,,,-99.99,,2013-02-21 06:51:00,
2013-02-21 02:01:00,19.0,14.0,29.89,WNW,300,7.0,-999.0,79,-99.99,,,-99.99,,2013-02-21 07:01:00,
2013-02-21 02:11:00,19.0,14.0,29.89,WNW,300,5.0,-999.0,79,-99.99,,,-99.99,,2013-02-21 07:11:00,
2013-02-21 02:21:00,19.0,14.0,29.89,WNW,300,7.0,-999.0,79,-99.99,,,-99.99,,2013-02-21 07:21:00,
2013-02-21 02:32:00,19.0,14.0,29.90,WNW,300,6.0,-999.0,79,-99.99,,,-99.99,,2013-02-21 07:32:00,
2013-02-21 02:42:00,19.0,14.0,29.90,WNW,290,3.0,-999.0,79,-99.99,,,-99.99,,2013-02-21 07:42:00,
2013-02-21 02:52:00,19.0,16.0,29.89,WNW,290,6.0,-999.0,85,-99.99,,,-99.99,,2013-02-21 07:52:00,
2013-02-21 03:01:00,19.0,16.0,29.89,WNW,290,6.0,-999.0,85,-99.99,,,-99.99,,2013-02-21 08:01:00,
2013-02-21 03:11:00,19.0,16.0,29.89,West,280,8.0,-999.0,85,-99.99,,,-99.99,,2013-02-21 08:11:00,
2013-02-21 03:21:00,19.0,16.0,29.88,WNW,300,6.0,17.0,85,-99.99,,,-99.99,,2013-02-21 08:21:00,
2013-02-21 03:32:00,19.0,14.0,29.89,WNW,300,8.0,-999.0,79,-99.99,,,-99.99,,2013-02-21 08:32:00,
2013-02-21 03:42:00,19.0,14.0,29.89,West,280,12.0,18.0,79,-99.99,,,-99.99,,2013-02-21 08:42:00,
2013-02-21 03:52:00,19.0,14.0,29.89,NW,320,10.0,-999.0,79,-99.99,,,-99.99,,2013-02-21 08:52:00,
2013-02-21 04:01:00,19.0,14.0,29.89,NW,320,10.0,-999.0,79,-99.99,,,-99.99,,2013-02-21 09:01:00,
2013-02-21 04:11:00,19.0,14.0,29.90,NW,310,7.0,20.0,79,-99.99,,,-99.99,,2013-02-21 09:11:00,
2013-02-21 04:22:00,19.0,16.0,29.90,WNW,290,5.0,16.0,85,-99.99,,,-99.99,,2013-02-21 09:22:00,
2013-02-21 04:31:00,19.0,16.0,29.90,NW,310,6.0,-999.0,85,-99.99,,,-99.99,,2013-02-21 09:31:00,
2013-02-21 04:41:00,19.0,16.0,29.90,NW,310,6.0,-999.0,85,-99.99,,,-99.99,,2013-02-21 09:41:00,
2013-02-21 04:51:00,19.0,16.0,29.90,WNW,300,8.0,-999.0,85,-99.99,,,-99.99,,2013-02-21 09:51:00,
2013-02-21 05:01:00,19.0,16.0,29.90,WNW,300,8.0,-999.0,85,-99.99,,,-99.99,,2013-02-21 10:01:00,
2013-02-21 05:11:00,19.0,16.0,29.91,NW,310,7.0,-999.0,85,-99.99,,,-99.99,,2013-02-21 10:11:00,
2013-02-21 05:21:00,19.0,14.0,29.92,NW,320,14.0,23.0,79,-99.99,,,-99.99,,2013-02-21 10:21:00,
2013-02-21 05:31:00,19.0,12.0,29.92,NW,320,14.0,21.0,73,-99.99,,,-99.99,,2013-02-21 10:31:00,
2013-02-21 05:41:00,19.0,12.0,29.92,NW,310,10.0,21.0,73,-99.99,,,-99.99,,2013-02-21 10:41:00,
2013-02-21 05:51:00,19.0,14.0,29.93,NW,320,12.0,20.0,79,-99.99,,,-99.99,,2013-02-21 10:51:00,
2013-02-21 06:01:00,19.0,14.0,29.93,NW,320,12.0,20.0,79,-99.99,,,-99.99,,2013-02-21 11:01:00,
2013-02-21 06:11:00,19.0,12.0,29.94,NW,320,14.0,25.0,73,-99.99,,,-99.99,,2013-02-21 11:11:00,
2013-02-21 06:21:00,19.0,12.0,29.94,NW,310,14.0,23.0,73,-99.99,,,-99.99,,2013-02-21 11:21:00,
2013-02-21 06:31:00,18.0,10.0,29.95,NW,320,17.0,24.0,72,-99.99,,,-99.99,,2013-02-21 11:31:00,
2013-02-21 06:41:00,18.0,10.0,29.96,NW,320,14.0,25.0,72,-99.99,,,-99.99,,2013-02-21 11:41:00,
2013-02-21 06:51:00,18.0,10.0,29.96,NNW,340,10.0,20.0,72,-99.99,,,-99.99,,2013-02-21 11:51:00,
2013-02-21 07:01:00,18.0,10.0,29.96,NNW,340,10.0,20.0,72,-99.99,,,-99.99,,2013-02-21 12:01:00,
2013-02-21 07:11:00,16.0,10.0,29.97,NNW,330,13.0,21.0,78,-99.99,,,-99.99,,2013-02-21 12:11:00,
2013-02-21 07:21:00,16.0,9.0,29.98,NW,320,14.0,22.0,72,-99.99,,,-99.99,,2013-02-21 12:21:00,
2013-02-21 07:32:00,16.0,9.0,29.99,NW,320,14.0,22.0,72,-99.99,,,-99.99,,2013-02-21 12:32:00,
2013-02-21 07:42:00,16.0,9.0,29.99,NNW,330,13.0,22.0,72,-99.99,,,-99.99,,2013-02-21 12:42:00,
2013-02-21 07:52:00,16.0,9.0,30.00,NNW,330,14.0,20.0,72,-99.99,,,-99.99,,2013-02-21 12:52:00,
2013-02-21 08:02:00,16.0,9.0,30.00,NNW,330,14.0,20.0,72,-99.99,,,-99.99,,2013-02-21 13:02:00,
2013-02-21 08:12:00,16.0,9.0,30.01,NW,320,12.0,18.0,72,-99.99,,,-99.99,,2013-02-21 13:12:00,
2013-02-21 08:22:00,16.0,9.0,30.01,NNW,330,13.0,20.0,72,-99.99,,,-99.99,,2013-02-21 13:22:00,
2013-02-21 08:32:00,16.0,9.0,30.02,NW,320,13.0,21.0,72,-99.99,,,-99.99,,2013-02-21 13:32:00,
2013-02-21 08:41:00,16.0,9.0,30.02,NW,310,12.0,21.0,72,-99.99,,,-99.99,,2013-02-21 13:41:00,
2013-02-21 08:51:00,16.0,9.0,30.02,NW,320,9.0,18.0,72,-99.99,,,-99.99,,2013-02-21 13:51:00,
2013-02-21 09:02:00,16.0,9.0,30.02,NW,320,9.0,18.0,72,-99.99,,,-99.99,,2013-02-21 14:02:00,
2013-02-21 09:11:00,16.0,9.0,30.03,NW,320,12.0,17.0,72,-99.99,,,-99.99,,2013-02-21 14:11:00,
2013-02-21 09:21:00,16.0,9.0,30.04,NNW,340,10.0,17.0,72,-99.99,,,-99.99,,2013-02-21 14:21:00,
2013-02-21 09:32:00,16.0,9.0,30.04,NNW,330,8.0,-999.0,72,-99.99,,,-99.99,,2013-02-21 14:32:00,
2013-02-21 09:42:00,16.0,9.0,30.04,NW,320,12.0,16.0,72,-99.99,,,-99.99,,2013-02-21 14:42:00,
2013-02-21 09:52:00,16.0,9.0,30.05,NNW,340,8.0,-999.0,72,-99.99,,,-99.99,,2013-02-21 14:52:00,
2013-02-21 10:01:00,16.0,9.0,30.05,NNW,340,8.0,-999.0,72,-99.99,,,-99.99,,2013-02-21 15:01:00,
2013-02-21 10:12:00,16.0,9.0,30.05,NW,320,7.0,-999.0,72,-99.99,,,-99.99,,2013-02-21 15:12:00,
2013-02-21 10:21:00,16.0,9.0,30.07,NNW,330,9.0,18.0,72,-99.99,,,-99.99,,2013-02-21 15:21:00,
2013-02-21 10:32:00,16.0,7.0,30.07,NW,320,14.0,22.0,67,-99.99,,,-99.99,,2013-02-21 15:32:00,
2013-02-21 10:42:00,16.0,7.0,30.06,NNW,330,13.0,22.0,67,-99.99,,,-99.99,,2013-02-21 15:42:00,
2013-02-21 10:51:00,16.0,7.0,30.07,NW,320,13.0,22.0,67,-99.99,,,-99.99,,2013-02-21 15:51:00,
2013-02-21 11:02:00,16.0,7.0,30.07,NW,320,13.0,22.0,67,-99.99,,,-99.99,,2013-02-21 16:02:00,
2013-02-21 11:12:00,16.0,7.0,30.08,NW,310,13.0,27.0,67,-99.99,,,-99.99,,2013-02-21 16:12:00,
2013-02-21 11:22:00,16.0,7.0,30.08,NNW,330,10.0,23.0,67,-99.99,,,-99.99,,2013-02-21 16:22:00,
2013-02-21 11:32:00,16.0,7.0,30.09,NW,320,10.0,18.0,67,-99.99,,,-99.99,,2013-02-21 16:32:00,
2013-02-21 11:42:00,16.0,7.0,30.10,NW,320,12.0,17.0,67,-99.99,,,-99.99,,2013-02-21 16:42:00,
2013-02-21 11:52:00,16.0,9.0,30.10,NW,320,12.0,22.0,72,-99.99,,,-99.99,,2013-02-21 16:52:00,
2013-02-21 12:01:00,16.0,9.0,30.10,NW,320,12.0,22.0,72,-99.99,,,-99.99,,2013-02-21 17:01:00,
2013-02-21 12:11:00,16.0,9.0,30.09,NW,320,10.0,20.0,72,-99.99,,,-99.99,,2013-02-21 17:11:00,
2013-02-21 12:21:00,16.0,9.0,30.09,NW,310,12.0,21.0,72,-99.99,,,-99.99,,2013-02-21 17:21:00,
2013-02-21 12:32:00,18.0,9.0,30.09,NW,320,12.0,17.0,67,-99.99,,,-99.99,,2013-02-21 17:32:00,
2013-02-21 12:42:00,18.0,9.0,30.08,NNW,330,13.0,21.0,67,-99.99,,,-99.99,,2013-02-21 17:42:00,
2013-02-21 12:52:00,18.0,9.0,30.08,WNW,300,12.0,20.0,67,-99.99,,,-99.99,,2013-02-21 17:52:00,
2013-02-21 13:02:00,18.0,9.0,30.08,WNW,300,12.0,20.0,67,-99.99,,,-99.99,,2013-02-21 18:02:00,
2013-02-21 13:11:00,18.0,10.0,30.09,NNW,330,14.0,20.0,72,-99.99,,,-99.99,,2013-02-21 18:11:00,
2013-02-21 13:22:00,18.0,9.0,30.09,NNW,330,13.0,20.0,67,-99.99,,,-99.99,,2013-02-21 18:22:00,
2013-02-21 13:32:00,18.0,9.0,30.10,NW,310,10.0,-999.0,67,-99.99,,,-99.99,,2013-02-21 18:32:00,
2013-02-21 13:42:00,18.0,9.0,30.10,NNW,330,12.0,18.0,67,-99.99,,,-99.99,,2013-02-21 18:42:00,
2013-02-21 13:51:00,16.0,9.0,30.11,NW,310,14.0,29.0,72,-99.99,,,-99.99,,2013-02-21 18:51:00,
2013-02-21 14:01:00,16.0,9.0,30.11,NW,310,14.0,29.0,72,-99.99,,,-99.99,,2013-02-21 19:01:00,
2013-02-21 14:12:00,18.0,10.0,30.11,NW,310,9.0,16.0,72,-99.99,,,-99.99,,2013-02-21 19:12:00,
2013-02-21 14:21:00,18.0,10.0,30.11,NW,320,12.0,17.0,72,-99.99,,,-99.99,,2013-02-21 19:21:00,
2013-02-21 14:32:00,18.0,10.0,30.12,NNW,330,12.0,22.0,72,-99.99,,,-99.99,,2013-02-21 19:32:00,
2013-02-21 14:42:00,18.0,10.0,30.12,NW,310,8.0,22.0,72,-99.99,,,-99.99,,2013-02-21 19:42:00,
2013-02-21 14:51:00,18.0,10.0,30.13,NW,320,9.0,18.0,72,-99.99,,,-99.99,,2013-02-21 19:51:00,
2013-02-21 15:01:00,18.0,10.0,30.13,NW,320,9.0,18.0,72,-99.99,,,-99.99,,2013-02-21 20:01:00,
2013-02-21 15:11:00,18.0,10.0,30.14,NW,320,10.0,21.0,72,-99.99,,,-99.99,,2013-02-21 20:11:00,
2013-02-21 15:21:00,18.0,10.0,30.14,NNW,330,12.0,21.0,72,-99.99,,,-99.99,,2013-02-21 20:21:00,
2013-02-21 15:32:00,18.0,10.0,30.15,NNW,330,9.0,-999.0,72,-99.99,,,-99.99,,2013-02-21 20:32:00,
2013-02-21 15:41:00,18.0,10.0,30.16,NNW,330,9.0,-999.0,72,-99.99,,,-99.99,,2013-02-21 20:41:00,
2013-02-21 15:52:00,18.0,10.0,30.16,NNW,330,9.0,-999.0,72,-99.99,,,-99.99,,2013-02-21 20:52:00,
2013-02-21 16:02:00,18.0,10.0,30.16,NNW,330,9.0,-999.0,72,-99.99,,,-99.99,,2013-02-21 21:02:00,
2013-02-21 16:11:00,18.0,10.0,30.17,NNW,330,13.0,21.0,72,-99.99,,,-99.99,,2013-02-21 21:11:00,
2013-02-21 16:21:00,18.0,12.0,30.18,NNW,340,8.0,-999.0,78,-99.99,,,-99.99,,2013-02-21 21:21:00,
2013-02-21 16:32:00,18.0,12.0,30.18,NNW,330,14.0,20.0,78,-99.99,,,-99.99,,2013-02-21 21:32:00,
2013-02-21 16:42:00,18.0,10.0,30.18,NW,320,12.0,20.0,72,-99.99,,,-99.99,,2013-02-21 21:42:00,
2013-02-21 16:52:00,18.0,10.0,30.19,NNW,340,9.0,17.0,72,-99.99,,,-99.99,,2013-02-21 21:52:00,
2013-02-21 17:01:00,18.0,10.0,30.19,NNW,340,9.0,17.0,72,-99.99,,,-99.99,,2013-02-21 22:01:00,
2013-02-21 17:11:00,18.0,12.0,30.21,NW,320,7.0,-999.0,78,-99.99,,,-99.99,,2013-02-21 22:11:00,
2013-02-21 17:21:00,18.0,12.0,30.21,NNW,330,8.0,-999.0,78,-99.99,,,-99.99,,2013-02-21 22:21:00,
2013-02-21 17:32:00,18.0,12.0,30.22,North,350,7.0,-999.0,78,-99.99,,,-99.99,,2013-02-21 22:32:00,
2013-02-21 17:42:00,18.0,12.0,30.22,NNW,330,6.0,-999.0,78,-99.99,,,-99.99,,2013-02-21 22:42:00,
2013-02-21 17:52:00,18.0,12.0,30.22,NW,320,8.0,-999.0,78,-99.99,,,-99.99,,2013-02-21 22:52:00,
2013-02-21 18:01:00,18.0,12.0,30.22,NW,320,8.0,-999.0,78,-99.99,,,-99.99,,2013-02-21 23:01:00,
2013-02-21 18:11:00,18.0,12.0,30.23,NNW,340,7.0,-999.0,78,-99.99,,,-99.99,,2013-02-21 23:11:00,
2013-02-21 18:21:00,18.0,12.0,30.23,NNW,330,7.0,-999.0,78,-99.99,,,-99.99,,2013-02-21 23:21:00,
2013-02-21 18:32:00,18.0,12.0,30.24,NNW,330,6.0,-999.0,78,-99.99,,,-99.99,,2013-02-21 23:32:00,
2013-02-21 18:41:00,18.0,12.0,30.24,NNW,340,6.0,-999.0,78,-99.99,,,-99.99,,2013-02-21 23:41:00,
2013-02-21 18:52:00,18.0,12.0,30.24,NNW,340,7.0,-999.0,78,-99.99,,,-99.99,,2013-02-21 23:52:00,
2013-02-21 19:01:00,18.0,12.0,30.24,NNW,340,7.0,-999.0,78,-99.99,,,-99.99,,2013-02-22 00:01:00,
2013-02-21 19:11:00,18.0,12.0,30.24,NNW,340,6.0,-999.0,78,-99.99,,,-99.99,,2013-02-22 00:11:00,
2013-02-21 19:21:00,18.0,12.0,30.24,NNW,340,6.0,-999.0,78,-99.99,,,-99.99,,2013-02-22 00:21:00,
2013-02-21 19:32:00,18.0,12.0,30.26,NNW,340,5.0,-999.0,78,-99.99,,,-99.99,,2013-02-22 00:32:00,
2013-02-21 19:42:00,18.0,12.0,30.28,NNW,340,3.0,-999.0,78,-99.99,,,-99.99,,2013-02-22 00:42:00,
2013-02-21 19:51:00,18.0,12.0,30.30,North,350,7.0,-999.0,78,-99.99,,,-99.99,,2013-02-22 00:51:00,
2013-02-21 20:01:00,18.0,12.0,30.30,North,350,7.0,-999.0,78,-99.99,,,-99.99,,2013-02-22 01:01:00,
2013-02-21 20:11:00,18.0,12.0,30.31,NW,320,6.0,-999.0,78,-99.99,,,-99.99,,2013-02-22 01:11:00,
2013-02-21 20:21:00,18.0,12.0,30.31,NW,320,5.0,-999.0,78,-99.99,,,-99.99,,2013-02-22 01:21:00,
2013-02-21 20:32:00,18.0,14.0,30.33,WNW,300,6.0,-999.0,85,-99.99,,,-99.99,,2013-02-22 01:32:00,
2013-02-21 20:42:00,18.0,14.0,30.32,WNW,290,7.0,-999.0,85,-99.99,,,-99.99,,2013-02-22 01:42:00,
2013-02-21 20:51:00,18.0,14.0,30.33,North,0,0.0,-999.0,85,-99.99,,,-99.99,,2013-02-22 01:51:00,
2013-02-21 21:02:00,18.0,14.0,30.33,North,0,0.0,-999.0,85,-99.99,,,-99.99,,2013-02-22 02:02:00,
2013-02-21 21:11:00,18.0,16.0,30.34,North,350,5.0,-999.0,92,-99.99,,,-99.99,,2013-02-22 02:11:00,
2013-02-21 21:21:00,18.0,16.0,30.34,North,350,5.0,-999.0,92,-99.99,,,-99.99,,2013-02-22 02:21:00,
2013-02-21 21:32:00,19.0,16.0,30.34,NNW,340,5.0,-999.0,85,-99.99,,,-99.99,,2013-02-22 02:32:00,
2013-02-21 21:42:00,19.0,16.0,30.34,NNW,340,3.0,-999.0,85,-99.99,,,-99.99,,2013-02-22 02:42:00,
2013-02-21 21:52:00,19.0,16.0,30.34,North,0,0.0,-999.0,85,-99.99,,,-99.99,,2013-02-22 02:52:00,
2013-02-21 22:02:00,19.0,16.0,30.34,North,0,0.0,-999.0,85,-99.99,,,-99.99,,2013-02-22 03:02:00,
2013-02-21 22:11:00,19.0,16.0,30.34,North,10,3.0,-999.0,85,-99.99,,,-99.99,,2013-02-22 03:11:00,
2013-02-21 22:21:00,19.0,16.0,30.34,North,350,5.0,-999.0,85,-99.99,,,-99.99,,2013-02-22 03:21:00,
2013-02-21 22:32:00,19.0,18.0,30.34,NNW,330,5.0,-999.0,92,-99.99,,,-99.99,,2013-02-22 03:32:00,
2013-02-21 22:42:00,19.0,16.0,30.34,NNW,340,3.0,-999.0,85,-99.99,,,-99.99,,2013-02-22 03:42:00,
2013-02-21 22:51:00,19.0,18.0,30.36,North,0,0.0,-999.0,92,-99.99,,,-99.99,,2013-02-22 03:51:00,
2013-02-21 23:02:00,19.0,18.0,30.36,North,0,0.0,-999.0,92,-99.99,,,-99.99,,2013-02-22 04:02:00,
2013-02-21 23:11:00,19.0,18.0,30.36,North,0,0.0,-999.0,92,-99.99,,,-99.99,,2013-02-22 04:11:00,
2013-02-21 23:21:00,19.0,18.0,30.36,NE,50,3.0,-999.0,92,-99.99,,,-99.99,,2013-02-22 04:21:00,
2013-02-21 23:32:00,21.0,18.0,30.35,North,0,0.0,-999.0,85,-99.99,,,-99.99,,2013-02-22 04:32:00,
2013-02-21 23:42:00,21.0,18.0,30.34,North,0,0.0,-999.0,85,-99.99,,,-99.99,,2013-02-22 04:42:00,
2013-02-21 23:51:00,19.0,18.0,30.34,North,0,0.0,-999.0,92,-99.99,,,-99.99,,2013-02-22 04:51:00,